FW3835 Weather Reports


Display with metric or nautical units.
time (UTC)temp
F
wind
direction
speed
MPH
gust
MPH
rain 1hr
in
rain 24hr
in
rain mn
in
humidity
%
barometer
mb
20260508231525 60 294 6.0 15.0 0.00 0.00 0.00 20 1002.8
20260508230009 60 293 5.0 15.0 0.00 0.00 0.00 20 1002.9
20260508224515 60 294 5.0 20.0 0.00 0.00 0.00 21 1002.9
20260508223016 60 306 2.0 16.0 0.00 0.00 0.00 22 1002.9
20260508221537 60 299 3.0 19.0 0.00 0.00 0.00 22 1003.0
20260508220029 61 312 7.0 18.0 0.00 0.00 0.00 18 1003.1
20260508214509 60 304 4.0 18.0 0.00 0.00 0.00 16 1003.0
20260508213021 61 266 8.0 19.0 0.00 0.00 0.00 18 1002.8
20260508211520 62 318 7.0 18.0 0.00 0.00 0.00 17 1002.6
20260508210024 62 287 6.0 16.0 0.00 0.00 0.00 18 1002.6
20260508204528 63 238 6.0 16.0 0.00 0.00 0.00 17 1002.3
20260508203012 63 267 4.0 18.0 0.00 0.00 0.00 17 1002.3
20260508201515 62 317 4.0 17.0 0.00 0.00 0.00 20 1002.3
20260508200021 63 257 5.0 17.0 0.00 0.00 0.00 19 1002.4
20260508194526 63 313 5.0 15.0 0.00 0.00 0.00 20 1002.4
20260508193026 63 304 6.0 16.0 0.00 0.00 0.00 22 1002.2
20260508191514 63 291 8.0 17.0 0.00 0.00 0.00 22 1002.3
20260508190018 65 249 4.0 14.0 0.00 0.00 0.00 21 1002.3
20260508184526 61 342 5.0 12.0 0.00 0.00 0.00 23 1002.6
20260508183029 61 277 5.0 11.0 0.00 0.00 0.00 20 1002.7
20260508181527 61 265 4.0 14.0 0.00 0.00 0.00 19 1002.7
20260508180018 61 315 6.0 13.0 0.00 0.00 0.00 16 1002.7
20260508174534 63 313 5.0 11.0 0.00 0.00 0.00 16 1002.8
20260508173026 63 272 2.0 14.0 0.00 0.00 0.00 16 1003.0
20260508171528 63 248 2.0 10.0 0.00 0.00 0.00 14 1003.2
20260508170013 61 294 3.0 15.0 0.00 0.00 0.00 13 1003.3
20260508164525 63 248 2.0 13.0 0.00 0.00 0.00 13 1003.4
20260508163001 62 285 4.0 11.0 0.00 0.00 0.00 15 1003.5
20260508161509 63 192 4.0 11.0 0.00 0.00 0.00 16 1003.7
20260508160009 60 208 5.0 12.0 0.00 0.00 0.00 20 1003.9
20260508154517 59 193 3.0 11.0 0.00 0.00 0.00 16 1004.2
20260508153021 59 253 2.0 8.0 0.00 0.00 0.00 20 1004.3
20260508151505 57 236 3.0 14.0 0.00 0.00 0.00 18 1004.7
20260508150007 57 259 2.0 9.0 0.00 0.00 0.00 22 1004.8
20260508144514 55 234 3.0 10.0 0.00 0.00 0.00 24 1004.9
20260508143018 54 204 1.0 10.0 0.00 0.00 0.00 27 1005.1
20260508141527 51 174 3.0 7.0 0.00 0.00 0.00 30 1005.1
20260508140006 49 202 2.0 8.0 0.00 0.00 0.00 34 1005.3
20260508134510 46 217 2.0 5.0 0.00 0.00 0.00 35 1005.5
20260508133017 45 198 2.0 5.0 0.00 0.00 0.00 36 1005.7
20260508131520 44 201 2.0 5.0 0.00 0.00 0.00 36 1005.9
20260508130024 44 199 1.0 3.0 0.00 0.00 0.00 37 1006.0
20260508124507 43 199 0.0 5.0 0.00 0.00 0.00 39 1005.9
20260508123010 41 198 1.0 4.0 0.00 0.00 0.00 38 1005.9
20260508121519 40 194 1.0 4.0 0.00 0.00 0.00 41 1005.9
20260508120021 40 190 1.0 6.0 0.00 0.00 0.00 40 1005.8
20260508114523 39 187 1.0 9.0 0.00 0.00 0.00 42 1005.8
20260508113009 38 202 2.0 5.0 0.00 0.00 0.00 43 1005.9
20260508111514 36 193 0.0 2.0 0.00 0.00 0.00 44 1005.9
20260508110020 37 196 0.0 3.0 0.00 0.00 0.00 42 1005.9
20260508104534 37 196 0.0 2.0 0.00 0.00 0.00 42 1005.9
20260508103033 37 199 1.0 4.0 0.00 0.00 0.00 43 1006.0
20260508101527 36 233 1.0 3.0 0.00 0.00 0.00 43 1006.1
20260508100015 36 258 1.0 3.0 0.00 0.00 0.00 42 1006.2
20260508094520 36 330 0.0 3.0 0.00 0.00 0.00 43 1006.1
20260508093027 35 330 0.0 1.0 0.00 0.00 0.00 43 1006.2
20260508091525 34 330 0.0 1.0 0.00 0.00 0.00 45 1006.4
20260508090031 34 329 0.0 1.0 0.00 0.00 0.00 45 1006.7
20260508084514 34 329 0.0 1.0 0.00 0.00 0.00 46 1006.7
20260508083020 35 329 0.0 1.0 0.00 0.00 0.00 44 1006.8
20260508081527 36 330 0.0 0.0 0.00 0.00 0.00 42 1006.9
20260508080025 35 360 0.0 0.0 0.00 0.00 0.00 42 1006.9
20260508074527 35 360 0.0 0.0 0.00 0.00 0.00 42 1007.0
20260508073016 35 330 0.0 0.0 0.00 0.00 0.00 42 1007.1
20260508071521 35 330 0.0 0.0 0.00 0.00 0.00 42 1007.1
20260508070013 34 330 0.0 0.0 0.00 0.00 0.00 43 1007.2
20260508064508 33 330 0.0 1.0 0.00 0.00 0.00 46 1007.4
20260508063005 33 330 0.0 0.0 0.00 0.00 0.00 50 1007.4
20260508061508 32 330 0.0 0.0 0.00 0.00 0.00 52 1007.4
20260508060005 31 330 0.0 0.0 0.00 0.00 0.00 59 1007.5
20260508054508 31 330 0.0 0.0 0.00 0.00 0.00 54 1007.6
20260508053009 32 329 0.0 0.0 0.00 0.00 0.00 54 1007.7
20260508051506 33 360 0.0 0.0 0.00 0.00 0.00 51 1007.8
20260508050009 34 330 0.0 0.0 0.00 0.00 0.00 51 1007.9
20260508044508 34 330 0.0 0.0 0.00 0.00 0.00 47 1008.0
20260508043007 34 330 0.0 0.0 0.00 0.00 0.00 46 1008.1
20260508041512 34 330 0.0 0.0 0.00 0.00 0.00 45 1008.2
20260508040019 35 330 0.0 0.0 0.00 0.00 0.00 49 1008.3
20260508034513 35 330 0.0 0.0 0.00 0.00 0.00 44 1008.3
20260508033009 36 330 0.0 0.0 0.00 0.00 0.00 41 1008.3
20260508031517 37 330 0.0 0.0 0.00 0.00 0.00 39 1008.3
20260508030012 38 330 0.0 0.0 0.00 0.00 0.00 38 1008.3
20260508024511 39 330 0.0 0.0 0.00 0.00 0.00 37 1008.2
20260508023017 40 330 0.0 1.0 0.00 0.00 0.00 35 1008.3
20260508021513 41 330 0.0 1.0 0.00 0.00 0.00 34 1008.3
20260508020007 43 330 0.0 1.0 0.00 0.00 0.00 32 1008.2
20260508014513 45 330 0.0 1.0 0.00 0.00 0.00 31 1008.1
20260508013012 47 330 0.0 2.0 0.00 0.00 0.00 28 1008.0
20260508011512 48 330 0.0 5.0 0.00 0.00 0.00 26 1007.9
20260508010022 49 297 3.0 7.0 0.00 0.00 0.00 23 1007.8
20260508004508 50 340 4.0 9.0 0.00 0.00 0.00 22 1007.8
20260508003012 51 267 3.0 9.0 0.00 0.00 0.00 22 1007.9
20260508001516 51 308 3.0 11.0 0.00 0.00 0.00 21 1007.9
20260508000016 51 292 2.0 12.0 0.00 0.00 0.00 21 1007.8
20260507234518 52 113 3.0 10.0 0.00 0.00 0.00 20 1007.8
20260507233010 53 271 5.0 12.0 0.00 0.00 0.00 20 1007.9